Home > Weather > San Juan > Past weeks

Flag for Puerto Rico Past Weather in San Juan, Puerto Rico — Yesterday and Last 2 Weeks

Now
81 °F

Passing clouds.


Feels Like: 89 °F
Forecast: 82 / 86 °F
Wind: 9 mph from East

Location: Luis Munoz Marin

Current Time: Jul 30, 2016 at 9:46:00 PM

Latest Report: Jul 30, 2016 at 8:56 PM


Visibility: 9 mi

Pressure: 29.99 "Hg

Humidity: 94%

Dew Point: 79 °F

Location of San JuanLocation

Past Weather in San Juan — Graph

°F

San Juan Temperature Yesterday

Maximum temperature yesterday: 89 °F (at 12:56 PM)
Minimum temperature yesterday: 78 °F (at 3:56 AM)
Average temperature yesterday: 83 °F

High & Low Weather Summary for the Past Weeks

 TemperatureHumidityPressure
High90 °F (Jul 19, 11:56 AM)100% (Jul 18, 5:56 AM)30.09 "Hg (Jul 18, 5:56 AM)
Low76 °F (Jul 17, 11:56 PM)57% (Jul 29, 3:56 PM)29.94 "Hg (Jul 18, 5:56 PM)
Average83 °F81%30.01 "Hg
* Reported Jul 15 7:56 PM — Jul 30 7:56 PM, San Juan, Weather by CustomWeather, © 2016

Note: Actual official high and low records may vary slightly from our data, if they occured in-between our weather recording intervals... More about our weather records

Advertising

San Juan Weather History for the Previous 24 Hours

Scroll right to see more
 ConditionsComfort  
Time TempWeatherWind HumidityBarometerVisibility
7:56 PM
Sat, Jul 30
82 °FScattered clouds.10 mph85%29.98 "Hg9 mi
6:56 PM81 °FScattered clouds.13 mph91%29.97 "Hg9 mi
5:56 PM79 °FScattered clouds.14 mph94%29.96 "Hg10 mi
4:56 PM82 °FLight rain. Mostly cloudy.8 mph91%29.96 "Hg8 mi
3:56 PM86 °FLight rain. Cloudy.17 mph72%29.97 "Hg8 mi
2:56 PM89 °FScattered clouds.20 mph63%29.98 "Hg8 mi
1:56 PM88 °FScattered clouds.16 mph65%30.00 "Hg9 mi
12:56 PM89 °FScattered clouds.15 mph63%30.01 "Hg9 mi
11:56 AM88 °FScattered clouds.18 mph65%30.02 "Hg9 mi
10:56 AM87 °FScattered clouds.18 mph65%30.03 "Hg9 mi
9:56 AM87 °FScattered clouds.17 mph67%30.03 "Hg9 mi
8:56 AM85 °FScattered clouds.18 mph70%30.03 "Hg9 mi
7:56 AM83 °FScattered clouds.12 mph79%30.02 "Hg9 mi
6:56 AM82 °FPassing clouds.9 mph79%30.01 "Hg9 mi
5:56 AM81 °FPassing clouds.9 mph82%30.00 "Hg9 mi
4:56 AM81 °FPassing clouds.8 mph82%29.99 "Hg10 mi
3:56 AM81 °FPassing clouds.8 mph85%29.98 "Hg10 mi
2:56 AM81 °FPassing clouds.7 mph85%29.98 "Hg10 mi
1:56 AM82 °FPassing clouds.5 mph85%29.99 "Hg10 mi
12:56 AM81 °FPassing clouds.3 mph91%30.01 "Hg10 mi
11:56 PM
Fri, Jul 29
82 °FPassing clouds.8 mph88%30.03 "Hg10 mi
10:56 PM83 °FLight rain. Partly cloudy.9 mph85%30.03 "Hg10 mi
9:56 PM82 °FPassing clouds.8 mph88%30.03 "Hg10 mi
Weather by CustomWeather, © 2016

See weather overviewHow to use our weather pages